EN

Hourly Weather Abydos

Today, 4 December, Friday

Time Temperature Precipitation Wind Pressure Humidity
00:00 +14°C° 0 mm 1 mps 754 mmHg 61%
01:00 +14°C° 0 mm 1 mps 754 mmHg 61%
02:00 +14°C° 0 mm 1 mps 753 mmHg 62%
03:00 +13°C° 0 mm 1 mps 753 mmHg 65%
04:00 +12°C° 0 mm 1 mps 754 mmHg 68%
05:00 +12°C° 0 mm 1 mps 754 mmHg 71%
06:00 +14°C° 0 mm 1 mps 754 mmHg 62%
07:00 +15°C° 0 mm 0 mps 755 mmHg 53%
08:00 +17°C° 0 mm 0 mps 755 mmHg 48%
09:00 +18°C° 0 mm 0 mps 755 mmHg 43%
10:00 +22°C° 0 mm 1 mps 755 mmHg 38%
11:00 +24°C° 0 mm 1 mps 755 mmHg 33%
12:00 +25°C° 0 mm 2 mps 754 mmHg 30%
13:00 +25°C° 0 mm 2 mps 754 mmHg 27%
14:00 +26°C° 0 mm 3 mps 753 mmHg 23%
15:00 +25°C° 0 mm 3 mps 753 mmHg 26%
16:00 +22°C° 0 mm 3 mps 753 mmHg 28%
17:00 +20°C° 0 mm 3 mps 753 mmHg 30%
18:00 +18°C° 0 mm 2 mps 753 mmHg 36%
19:00 +18°C° 0 mm 1 mps 753 mmHg 42%
20:00 +14°C° 0 mm 0 mps 754 mmHg 48%
21:00 +15°C° 0 mm 1 mps 754 mmHg 46%
22:00 +15°C° 0 mm 1 mps 754 mmHg 45%
23:00 +15°C° 0 mm 1 mps 754 mmHg 43%

Tomorrow, 5 December, Saturday

Time Temperature Precipitation Wind Pressure Humidity
00:00 +14°C° 0 mm 1 mps 754 mmHg 44%
01:00 +13°C° 0 mm 0 mps 753 mmHg 46%
02:00 +13°C° 0 mm 0 mps 753 mmHg 47%
03:00 +12°C° 0 mm 0 mps 753 mmHg 49%
04:00 +12°C° 0 mm 0 mps 753 mmHg 52%
05:00 +13°C° 0 mm 1 mps 753 mmHg 55%
06:00 +15°C° 0 mm 1 mps 754 mmHg 47%
07:00 +18°C° 0 mm 1 mps 754 mmHg 39%
08:00 +20°C° 0 mm 1 mps 754 mmHg 32%
09:00 +21°C° 0 mm 2 mps 754 mmHg 28%
10:00 +24°C° 0 mm 2 mps 754 mmHg 25%
11:00 +26°C° 0 mm 2 mps 754 mmHg 21%
12:00 +27°C° 0 mm 3 mps 753 mmHg 19%
13:00 +27°C° 0 mm 3 mps 753 mmHg 18%
14:00 +28°C° 0 mm 4 mps 752 mmHg 16%
15:00 +26°C° 0 mm 4 mps 752 mmHg 18%
16:00 +23°C° 0 mm 4 mps 752 mmHg 21%
17:00 +21°C° 0 mm 3 mps 752 mmHg 23%
18:00 +20°C° 0 mm 3 mps 753 mmHg 26%
19:00 +19°C° 0 mm 3 mps 753 mmHg 29%
20:00 +17°C° 0 mm 3 mps 753 mmHg 31%
21:00 +17°C° 0 mm 3 mps 754 mmHg 34%
22:00 +16°C° 0 mm 3 mps 754 mmHg 37%
23:00 +15°C° 0 mm 2 mps 754 mmHg 40%

Day after tomorrow, 6 December, Sunday

Time Temperature Precipitation Wind Pressure Humidity
00:00 +15°C° 0 mm 2 mps 754 mmHg 41%
01:00 +14°C° 0 mm 2 mps 754 mmHg 42%
02:00 +14°C° 0 mm 2 mps 754 mmHg 44%
03:00 +13°C° 0 mm 2 mps 754 mmHg 47%
04:00 +13°C° 0 mm 2 mps 755 mmHg 50%
05:00 +12°C° 0 mm 1 mps 755 mmHg 54%
06:00 +14°C° 0 mm 1 mps 755 mmHg 48%
07:00 +15°C° 0 mm 1 mps 755 mmHg 43%
08:00 +16°C° 0 mm 0 mps 755 mmHg 38%
09:00 +20°C° 0 mm 1 mps 755 mmHg 34%
10:00 +22°C° 0 mm 1 mps 755 mmHg 30%
11:00 +24°C° 0 mm 1 mps 755 mmHg 26%
12:00 +25°C° 0 mm 1 mps 754 mmHg 23%
13:00 +26°C° 0 mm 1 mps 754 mmHg 20%
14:00 +27°C° 0 mm 2 mps 753 mmHg 17%
15:00 +24°C° 0 mm 1 mps 753 mmHg 19%
16:00 +22°C° 0 mm 1 mps 753 mmHg 22%
17:00 +20°C° 0 mm 1 mps 753 mmHg 25%
18:00 +19°C° 0 mm 1 mps 754 mmHg 26%
19:00 +18°C° 0 mm 1 mps 754 mmHg 27%
20:00 +16°C° 0 mm 1 mps 755 mmHg 29%
21:00 +16°C° 0 mm 1 mps 755 mmHg 29%
22:00 +15°C° 0 mm 1 mps 755 mmHg 30%
23:00 +14°C° 0 mm 0 mps 755 mmHg 31%

7 December, Monday

Time Temperature Precipitation Wind Pressure Humidity
00:00 +15°C° 0 mm 1 mps 755 mmHg 32%
01:00 +15°C° 0 mm 1 mps 755 mmHg 32%
02:00 +14°C° 0 mm 1 mps 754 mmHg 33%
03:00 +14°C° 0 mm 1 mps 755 mmHg 37%
04:00 +14°C° 0 mm 1 mps 755 mmHg 42%
05:00 +14°C° 0 mm 2 mps 755 mmHg 46%
06:00 +16°C° 0 mm 2 mps 755 mmHg 45%
07:00 +17°C° 0 mm 2 mps 756 mmHg 44%
08:00 +19°C° 0 mm 2 mps 756 mmHg 43%
09:00 +21°C° 0 mm 3 mps 756 mmHg 36%
10:00 +25°C° 0 mm 3 mps 756 mmHg 29%
11:00 +27°C° 0 mm 3 mps 756 mmHg 22%
12:00 +28°C° 0 mm 3 mps 755 mmHg 20%
13:00 +30°C° 0 mm 3 mps 754 mmHg 18%
14:00 +31°C° 0 mm 3 mps 754 mmHg 16%
15:00 +29°C° 0 mm 3 mps 754 mmHg 18%
16:00 +27°C° 0 mm 3 mps 754 mmHg 21%
17:00 +25°C° 0 mm 2 mps 754 mmHg 23%
18:00 +24°C° 0 mm 2 mps 754 mmHg 26%
19:00 +21°C° 0 mm 2 mps 754 mmHg 28%
20:00 +20°C° 0 mm 2 mps 755 mmHg 30%
21:00 +20°C° 0 mm 2 mps 755 mmHg 31%
22:00 +19°C° 0 mm 2 mps 755 mmHg 32%
23:00 +19°C° 0 mm 2 mps 755 mmHg 33%

8 December, Tuesday

Time Temperature Precipitation Wind Pressure Humidity
00:00 +18°C° 0 mm 2 mps 755 mmHg 33%
01:00 +19°C° 0 mm 1 mps 755 mmHg 33%
02:00 +19°C° 0 mm 1 mps 754 mmHg 33%
03:00 +18°C° 0 mm 1 mps 754 mmHg 35%
04:00 +16°C° 0 mm 1 mps 754 mmHg 36%
05:00 +15°C° 0 mm 0 mps 754 mmHg 37%
06:00 +17°C° 0 mm 0 mps 755 mmHg 33%
07:00 +21°C° 0 mm 1 mps 755 mmHg 28%
08:00 +24°C° 0 mm 1 mps 756 mmHg 23%
09:00 +26°C° 0 mm 1 mps 756 mmHg 21%
10:00 +28°C° 0 mm 1 mps 756 mmHg 19%
11:00 +30°C° 0 mm 1 mps 756 mmHg 16%
12:00 +31°C° 0 mm 1 mps 755 mmHg 15%
13:00 +32°C° 0 mm 1 mps 755 mmHg 14%
14:00 +34°C° 0 mm 2 mps 754 mmHg 13%
15:00 +30°C° 0 mm 2 mps 754 mmHg 16%
16:00 +28°C° 0 mm 2 mps 754 mmHg 18%
17:00 +26°C° 0 mm 2 mps 754 mmHg 20%
18:00 +24°C° 0 mm 2 mps 754 mmHg 22%
19:00 +23°C° 0 mm 1 mps 755 mmHg 24%
20:00 +22°C° 0 mm 1 mps 755 mmHg 26%
21:00 +20°C° 0 mm 2 mps 755 mmHg 27%
22:00 +20°C° 0 mm 2 mps 755 mmHg 27%
23:00 +20°C° 0 mm 2 mps 755 mmHg 27%

9 December, Wednesday

Time Temperature Precipitation Wind Pressure Humidity
00:00 +19°C° 0 mm 2 mps 755 mmHg 28%
01:00 +19°C° 0 mm 2 mps 755 mmHg 28%
02:00 +18°C° 0 mm 2 mps 755 mmHg 28%
03:00 +18°C° 0 mm 2 mps 755 mmHg 30%
04:00 +17°C° 0 mm 2 mps 755 mmHg 31%
05:00 +16°C° 0 mm 2 mps 755 mmHg 32%
06:00 +18°C° 0 mm 2 mps 755 mmHg 30%
07:00 +19°C° 0 mm 2 mps 756 mmHg 28%
08:00 +20°C° 0 mm 2 mps 756 mmHg 25%
09:00 +24°C° 0 mm 2 mps 756 mmHg 22%
10:00 +26°C° 0 mm 2 mps 756 mmHg 20%
11:00 +28°C° 0 mm 1 mps 756 mmHg 17%
12:00 +29°C° 0 mm 1 mps 755 mmHg 16%
13:00 +31°C° 0 mm 1 mps 755 mmHg 15%
14:00 +32°C° 0 mm 1 mps 754 mmHg 14%
15:00 +30°C° 0 mm 2 mps 754 mmHg 16%
16:00 +28°C° 0 mm 3 mps 754 mmHg 18%
17:00 +26°C° 0 mm 3 mps 754 mmHg 20%
18:00 +25°C° 0 mm 3 mps 755 mmHg 23%
19:00 +24°C° 0 mm 3 mps 755 mmHg 25%
20:00 +22°C° 0 mm 4 mps 756 mmHg 27%
21:00 +21°C° 0 mm 3 mps 756 mmHg 29%
22:00 +20°C° 0 mm 3 mps 756 mmHg 30%
23:00 +19°C° 0 mm 2 mps 756 mmHg 32%
Show more